星链-33531 (STARLINK-33531)

导读

STARLINK-33531是美国SpaceX星链星座的成员卫星,于2025年3月31日发射入轨,隶属于美国太空探索技术公司打造的星链互联网卫星星座。星链系统旨在为全球用户提供覆盖偏远地区、海洋等区域的低延迟高速卫星互联网服务,该卫星承担着扩容星座网络覆盖与带宽的任务,进一步完善全球卫星互联网通信布局。

基本信息
目录编号:
63399
目录名称:
STARLINK-33531
国际标识:
2025-065A
轨道中心:
EARTH
卫星名称:
星链-33531
卫星全名:
星链-33531 (STARLINK-33531)
卫星状态:
在轨 (已飞行522 天)
发射日期:
2025-03-31 UTC
国别 :
美国 (US)
星等 :
--
轨道信息
数据来源 国际轨道数据 AOE轨道数据
星历时间 2026-09-04T11:32:13+0800
7小时前
查看轨道信息
2026-09-02T22:00:00+0800
1天前
查看轨道信息
半长轴 6861.144km 6861.142km
偏心率 0.0001769 0.0000022
轨道倾角 43.003° 43.002°
近地点辐角 261.216° 192.940°
升交点赤经 179.172° 188.007°
平近点角 98.850° 196.006°
近地点 481.793km 482.989km
远地点 484.221km 483.021km
周期 94.266分钟 94.266分钟
每日圈数 15.275942 15.275948
详细信息
固有亮度:
5
最大亮度:
2.5
卫星平台:
Starlink V1.0
覆盖范围:
全球
运营商:
太空探索技术公司
运营商所在国:
美国
制造商(研发单位):
太空探索技术公司
制造商所在国:
美国
使用方式:
暂无
卫星简介
Starlink 计划是 SpaceX 推出的全球卫星互联网项目,通过发射低轨道卫星,为全球尤其是偏远地区提供高速、低延迟的互联网服务。自 2019 年起,Starlink 已部署数千颗卫星,旨在缩小全球数字鸿沟,推动互联网普及。该项目还为军事、航空等行业提供通信支持,带来广泛经济效益。
2D轨道图
3D轨道图
轨道高度分析图
轨道倾角分析图
轨道综合分析图
查看轨道综合分析图
交会数据列表
事件ID 空间交会对象 最接近时刻(TCA) 交会距离 交会风险概率(CRP) 交会风险指数(CRI) 操作
CDM_260901-184205-719206-339921
2026-09-01T
18:42:43+0000
1.022 km
极远距离
2.26345E-5 中风险 0.62
CDM_260904-040505-650606-339922
2026-09-04T
04:05:38+0000
0.961 km
远距离
1.949234E-5 中风险 0.61
CDM_260904-053905-650606-339921
2026-09-04T
05:39:47+0000
1.191 km
极远距离
9.269375E-6 低风险 0.54
CDM_260904-190005-650606-339922
2026-09-04T
19:00:06+0000
1.206 km
极远距离
8.884555E-6 低风险 0.54
CDM_260905-010806-339906-433921
2026-09-05T
01:08:14+0000
1.036 km
极远距离
4.972443E-6 低风险 0.49
CDM_260904-203405-650606-339921
2026-09-04T
20:34:15+0000
2.087 km
极远距离
1.708462E-6 低风险 0.4
CDM_260904-023105-650606-339922
2026-09-04T
02:31:29+0000
2.576 km
极远距离
1.132445E-6 低风险 0.36
CDM_260904-172505-650606-339922
2026-09-04T
17:25:57+0000
2.702 km
极远距离
1.052693E-6 低风险 0.35
CDM_260904-071305-650606-339921
2026-09-04T
07:13:57+0000
2.918 km
极远距离
9.516049E-7 极低风险 0.35
CDM_260905-032906-339906-433921
2026-09-05T
03:29:28+0000
1.862 km
极远距离
8.606337E-7 极低风险 0.34